Location: Haliburton Scout Reserve
(45.0900°N, 78.3200°W)
Time: 08:44:19
(UTC-04:00)

S-56A Canister/Altair - Pass Details

Date: 07 February 2023
Orbit: 639 x 2493 km, 38.9° (Epoch: 27 March)

Event Time Altitude Azimuth Distance (km) Brightness Sun altitude
Rises 12:31:55 0° 261° (W) 2,954 10.7 29.7°
Reaches altitude 10° 12:34:08 10° 254° (WSW) 2,102 10.1 29.7°
Maximum altitude 12:38:35 42° 183° (S) 1,085 10.5 29.6°
Drops below altitude 10° 12:44:21 10° 114° (ESE) 2,724 10.7 29.6°
Sets 12:47:36 0° 108° (ESE) 3,951 11.3 29.5°
